CW4438 Weather Reports


time (UTC)temp
C
wind
direction
speed
KPH
gust
KPH
rain 1hr
cm
rain 24hr
cm
rain mn
cm
humidity
%
barometer
mb
20260507065101 5 288 0.0 0.0 0.00 0.00 0.00 87 1018.5
20260507064601 5 288 0.0 0.0 0.00 0.00 0.00 87 1018.5
20260507064100 5 288 0.0 0.0 0.00 0.00 0.00 87 1018.4
20260507063603 5 288 0.0 0.0 0.00 0.00 0.00 87 1018.4
20260507063101 5 288 0.0 0.0 0.00 0.00 0.00 87 1018.3
20260507061601 5 288 0.0 0.0 0.00 0.00 0.00 87 1018.3
20260507061101 6 288 0.0 0.0 0.00 0.00 0.00 86 1018.3
20260507060601 6 288 0.0 0.0 0.00 0.00 0.00 86 1018.3
20260507060101 6 288 0.0 0.0 0.00 0.00 0.00 86 1018.3
20260507055602 6 288 0.0 0.0 0.00 0.00 0.00 86 1018.3
20260507054559 6 288 0.0 0.0 0.00 0.00 0.00 86 1018.3
20260507054047 6 288 0.0 0.0 0.00 0.03 0.00 86 1018.2
20260507053043 6 288 0.0 0.0 0.00 0.03 0.00 85 1018.3
20260507052544 6 288 0.0 0.0 0.00 0.03 0.00 85 1018.2
20260507052044 6 288 0.0 0.0 0.00 0.03 0.00 85 1018.1
20260507051044 7 288 0.0 1.6 0.00 0.03 0.00 85 1018.2
20260507050544 7 288 0.0 0.0 0.00 0.03 0.00 83 1018.1
20260507050043 7 288 0.0 0.0 0.00 0.03 0.00 83 1018.2
20260507045539 7 288 0.0 0.0 0.00 0.03 0.03 83 1018.0
20260507044537 7 288 0.0 0.0 0.00 0.03 0.03 83 1017.9
20260507044037 7 288 0.0 0.0 0.00 0.03 0.03 83 1017.8
20260507043538 7 288 0.0 0.0 0.00 0.03 0.03 82 1017.8
20260507043035 7 288 0.0 0.0 0.00 0.03 0.03 81 1017.8
20260507042532 7 288 0.0 0.0 0.00 0.03 0.03 81 1017.7
20260507042030 7 287 0.0 0.0 0.00 0.03 0.03 80 1017.8
20260507041530 7 287 0.0 0.0 0.00 0.03 0.03 81 1017.8
20260507041030 8 287 0.0 0.0 0.00 0.03 0.03 81 1017.7
20260507040029 8 287 0.0 0.0 0.00 0.03 0.03 81 1017.6
20260507035029 8 287 0.0 0.0 0.00 0.03 0.03 81 1017.6
20260507034029 8 287 0.0 0.0 0.00 0.03 0.03 81 1017.6
20260507033530 8 287 0.0 0.0 0.00 0.03 0.03 80 1017.7
20260507033029 8 287 0.0 0.0 0.00 0.03 0.03 80 1017.7
20260507032529 8 287 0.0 0.0 0.00 0.03 0.03 80 1017.6
20260507032029 8 287 0.0 0.0 0.00 0.03 0.03 79 1017.6
20260507031526 8 287 0.0 0.0 0.00 0.03 0.03 79 1017.6
20260507031025 9 287 0.0 1.6 0.00 0.03 0.03 80 1017.5
20260507030522 9 287 0.0 1.6 0.00 0.03 0.03 79 1017.4
20260507030020 9 287 0.0 0.0 0.00 0.03 0.03 79 1017.3
20260507025518 9 287 0.0 0.0 0.00 0.03 0.03 79 1017.2
20260507025017 9 287 0.0 0.0 0.00 0.03 0.03 79 1017.2
20260507024514 10 287 0.0 0.0 0.00 0.03 0.03 79 1017.1
20260507024013 10 287 0.0 0.0 0.00 0.03 0.03 79 1017.1
20260507023511 10 287 0.0 1.6 0.00 0.03 0.03 78 1017.0
20260507023005 10 287 0.0 1.6 0.00 0.03 0.03 77 1016.9
20260507022002 10 287 0.0 0.0 0.00 0.03 0.03 76 1016.9
20260507021502 10 287 0.0 1.6 0.00 0.03 0.03 73 1016.9
20260507021002 11 287 0.0 1.6 0.00 0.03 0.03 73 1016.8
20260507020502 11 287 0.0 0.0 0.00 0.03 0.03 72 1016.8
20260507015502 11 287 0.0 0.0 0.00 0.03 0.03 71 1016.8
20260507015003 11 287 0.0 0.0 0.00 0.03 0.03 69 1016.8
20260507014502 11 287 0.0 0.0 0.00 0.03 0.03 68 1016.7
20260507014002 12 287 0.0 0.0 0.00 0.03 0.03 69 1016.6
20260507012458 12 286 0.0 1.6 0.00 0.03 0.03 67 1016.3
20260507011956 12 288 0.0 1.6 0.00 0.03 0.03 65 1016.3
20260507011446 13 288 0.0 0.0 0.00 0.03 0.03 65 1016.3
20260507005939 13 282 0.0 1.6 0.00 0.03 0.03 66 1016.2
20260507005438 13 269 0.0 3.2 0.00 0.03 0.03 65 1016.1
20260507004938 13 289 0.0 3.2 0.00 0.03 0.03 65 1016.1
20260507004437 13 51 0.0 4.8 0.00 0.03 0.03 65 1016.0
20260507003934 13 318 0.0 4.8 0.00 0.03 0.03 67 1016.1
20260507003434 13 265 0.0 3.2 0.00 0.03 0.03 65 1016.1
20260507002934 13 221 0.0 3.2 0.00 0.03 0.03 66 1016.2
20260507002434 13 304 0.0 1.6 0.00 0.03 0.03 65 1016.0
20260507001934 14 304 0.0 1.6 0.00 0.03 0.03 67 1015.9
20260507001432 14 305 0.0 1.6 0.00 0.03 0.03 66 1015.9
20260507000933 14 306 0.0 1.6 0.00 0.03 0.03 65 1015.9
20260506235931 14 82 0.0 4.8 0.00 0.03 0.03 63 1015.9
20260506235430 14 82 0.0 4.8 0.00 0.03 0.03 62 1015.8
20260506234931 14 338 0.0 3.2 0.00 0.03 0.03 61 1015.9
20260506234430 14 336 1.6 4.8 0.00 0.03 0.03 60 1015.8
20260506233429 15 292 0.0 3.2 0.00 0.03 0.03 62 1015.7
20260506232930 15 52 0.0 3.2 0.00 0.03 0.03 60 1015.7
20260506232429 15 202 0.0 3.2 0.00 0.03 0.03 59 1015.7
20260506231930 15 30 0.0 3.2 0.00 0.03 0.03 61 1015.7
20260506231429 15 148 1.6 6.4 0.00 0.03 0.03 57 1015.7
20260506230929 15 144 1.6 6.4 0.00 0.03 0.03 61 1015.6
20260506230429 15 20 1.6 4.8 0.00 0.03 0.03 57 1015.4
20260506225929 15 197 1.6 4.8 0.00 0.03 0.03 58 1015.2
20260506225429 15 115 1.6 4.8 0.00 0.03 0.03 58 1015.2
20260506223930 16 117 3.2 6.4 0.00 0.03 0.03 57 1014.9
20260506223429 16 13 3.2 11.3 0.00 0.03 0.03 58 1014.8
20260506221931 16 205 3.2 14.5 0.00 0.03 0.03 57 1014.6
20260506220929 16 147 1.6 11.3 0.00 0.03 0.03 56 1014.7
20260506215929 16 17 1.6 11.3 0.00 0.03 0.03 58 1014.8
20260506215429 16 35 1.6 8.0 0.00 0.03 0.03 59 1015.0
20260506213929 16 153 3.2 6.4 0.00 0.03 0.03 59 1015.0
20260506213429 16 74 1.6 6.4 0.00 0.03 0.03 57 1015.1
20260506212930 16 57 1.6 4.8 0.00 0.03 0.03 62 1015.0
20260506212429 16 49 3.2 12.9 0.00 0.03 0.03 60 1015.0
20260506211929 16 173 3.2 12.9 0.00 0.03 0.03 61 1015.0
20260506211429 16 34 1.6 8.0 0.00 0.03 0.03 58 1015.1
20260506210931 16 19 1.6 4.8 0.00 0.03 0.03 59 1015.3
20260506210429 16 153 3.2 6.4 0.00 0.03 0.03 61 1015.4
20260506205929 16 144 3.2 8.0 0.00 0.03 0.03 61 1015.4
20260506205429 16 68 3.2 8.0 0.00 0.03 0.03 60 1015.5
20260506204930 16 115 3.2 8.0 0.00 0.03 0.03 59 1015.4
20260506204429 16 144 1.6 6.4 0.00 0.03 0.03 62 1015.4
20260506203930 15 346 3.2 6.4 0.00 0.03 0.03 63 1015.5
20260506203429 15 242 1.6 6.4 0.00 0.03 0.03 63 1015.8
20260506202930 15 338 1.6 6.4 0.00 0.03 0.03 62 1015.9
20260506202429 15 126 1.6 4.8 0.00 0.03 0.03 63 1016.0
20260506201429 15 307 1.6 8.0 0.00 0.03 0.03 62 1016.0
20260506200929 15 36 3.2 11.3 0.00 0.03 0.03 60 1016.1
20260506200429 16 107 3.2 11.3 0.00 0.03 0.03 59 1016.2
20260506195931 16 308 1.6 8.0 0.00 0.03 0.03 59 1016.2
20260506195430 16 83 1.6 6.4 0.00 0.03 0.03 56 1016.3
20260506194429 16 139 3.2 8.0 0.00 0.05 0.03 57 1016.3
20260506193929 16 28 1.6 8.0 0.00 0.05 0.03 56 1016.5
20260506193429 16 197 3.2 8.0 0.00 0.05 0.03 58 1016.3
20260506192929 16 32 3.2 8.0 0.00 0.05 0.03 60 1016.2
20260506192429 16 263 1.6 6.4 0.00 0.05 0.03 60 1016.5
20260506191930 15 219 1.6 4.8 0.00 0.05 0.03 64 1016.3
20260506191429 15 40 1.6 8.0 0.00 0.05 0.03 60 1016.3
20260506190930 15 101 1.6 8.0 0.00 0.05 0.03 62 1016.3
20260506185936 15 23 1.6 6.4 0.00 0.05 0.03 63 1016.5
20260506184934 15 12 1.6 12.9 0.00 0.05 0.03 61 1016.6
20260506183930 15 10 3.2 6.4 0.00 0.05 0.03 64 1016.7
20260506183429 15 337 1.6 8.0 0.00 0.05 0.03 65 1016.9
20260506182928 14 330 1.6 8.0 0.00 0.05 0.03 67 1017.0
20260506182429 14 110 1.6 4.8 0.00 0.05 0.03 64 1017.1
20260506181930 14 286 0.0 3.2 0.00 0.05 0.03 66 1017.2
20260506180429 14 261 1.6 8.0 0.00 0.05 0.03 64 1017.6
20260506175929 14 351 1.6 8.0 0.00 0.05 0.03 64 1017.6
20260506175429 14 74 1.6 4.8 0.00 0.05 0.03 64 1017.6
20260506173429 14 338 1.6 4.8 0.00 0.05 0.03 67 1018.1
20260506172929 13 348 1.6 6.4 0.00 0.05 0.03 66 1018.1
20260506172429 13 329 3.2 6.4 0.00 0.05 0.03 66 1018.1
20260506171429 13 106 1.6 6.4 0.00 0.05 0.03 69 1018.0
20260506170929 13 151 1.6 8.0 0.00 0.05 0.03 66 1018.0
20260506170429 13 165 1.6 8.0 0.00 0.05 0.03 67 1018.1
20260506165929 13 99 3.2 12.9 0.00 0.05 0.03 69 1018.0
20260506165429 13 121 3.2 12.9 0.00 0.05 0.03 66 1017.9
20260506164929 12 138 1.6 8.0 0.00 0.05 0.03 70 1017.7
20260506164428 12 281 1.6 6.4 0.00 0.05 0.03 69 1017.7
20260506163929 12 24 3.2 9.7 0.00 0.05 0.03 69 1017.6
20260506163429 12 281 3.2 11.3 0.00 0.05 0.03 69 1017.4
20260506162930 12 135 3.2 12.9 0.00 0.05 0.03 69 1017.6
20260506162428 12 130 3.2 12.9 0.00 0.05 0.03 70 1017.4
20260506161929 12 155 3.2 12.9 0.00 0.05 0.03 70 1017.1
20260506161428 12 115 3.2 12.9 0.00 0.05 0.03 69 1017.0
20260506160930 12 130 1.6 8.0 0.00 0.05 0.03 73 1017.0
20260506160429 12 94 3.2 8.0 0.00 0.05 0.03 73 1017.0
20260506155931 11 277 3.2 8.0 0.00 0.05 0.03 75 1017.0
20260506155429 11 144 3.2 8.0 0.00 0.05 0.03 75 1017.0
20260506154930 11 318 1.6 9.7 0.00 0.05 0.03 76 1017.0
20260506154429 11 341 3.2 9.7 0.00 0.05 0.03 78 1016.8
20260506153930 11 347 3.2 11.3 0.00 0.05 0.03 74 1016.9
20260506153429 11 121 3.2 11.3 0.00 0.05 0.03 77 1016.8
20260506152929 10 17 3.2 14.5 0.00 0.05 0.03 76 1016.9
20260506152429 10 78 3.2 14.5 0.00 0.05 0.03 79 1016.9
20260506151930 10 128 3.2 8.0 0.00 0.05 0.03 78 1016.8
20260506150929 10 329 3.2 8.0 0.00 0.05 0.03 80 1016.8
20260506150422 10 28 3.2 8.0 0.00 0.05 0.03 80 1016.8
20260506145920 10 205 3.2 9.7 0.00 0.05 0.03 81 1016.9
20260506145420 10 18 3.2 9.7 0.00 0.05 0.03 79 1016.9
20260506144921 10 121 3.2 9.7 0.00 0.05 0.03 79 1016.8
20260506144420 10 313 3.2 9.7 0.00 0.05 0.03 79 1016.9
20260506143920 10 10 3.2 11.3 0.00 0.05 0.03 79 1016.8
20260506142918 10 351 1.6 14.5 0.00 0.05 0.03 81 1016.7
20260506142418 10 92 1.6 14.5 0.00 0.05 0.03 82 1016.5
20260506141918 10 304 3.2 11.3 0.00 0.05 0.03 82 1016.3
20260506141418 9 13 3.2 9.7 0.00 0.05 0.03 82 1016.6
20260506140919 9 100 3.2 9.7 0.00 0.05 0.03 82 1016.6
20260506140418 9 350 3.2 8.0 0.00 0.05 0.03 83 1016.7
20260506135918 9 317 1.6 8.0 0.00 0.05 0.03 85 1016.6
20260506135420 9 334 3.2 9.7 0.00 0.05 0.03 85 1016.5
20260506134415 9 14 1.6 4.8 0.00 0.05 0.03 87 1016.8
20260506133404 8 29 1.6 8.0 0.00 0.05 0.03 88 1016.7
20260506132903 8 50 1.6 6.4 0.00 0.05 0.03 87 1016.7
20260506132403 8 317 1.6 6.4 0.00 0.05 0.03 88 1016.5
20260506131902 8 59 1.6 6.4 0.00 0.05 0.03 89 1016.6
20260506131401 8 134 1.6 8.0 0.00 0.05 0.03 89 1016.3
20260506130901 8 45 1.6 8.0 0.00 0.05 0.03 89 1016.3
20260506130400 8 18 1.6 9.7 0.00 0.05 0.03 89 1016.6
20260506125858 8 96 1.6 9.7 0.00 0.05 0.03 90 1016.5
20260506125352 7 114 1.6 6.4 0.00 0.05 0.03 90 1016.2
20260506124847 7 5 3.2 8.0 0.00 0.05 0.03 90 1016.1
20260506123836 7 33 1.6 9.7 0.00 0.05 0.03 91 1016.2
20260506123335 7 331 1.6 6.4 0.00 0.05 0.03 91 1016.3
20260506122834 7 251 1.6 6.4 0.00 0.05 0.03 91 1016.1
20260506122334 7 158 1.6 6.4 0.00 0.05 0.03 91 1016.1
20260506121832 7 19 1.6 6.4 0.00 0.05 0.03 91 1015.9
20260506121332 7 332 0.0 4.8 0.00 0.05 0.03 91 1016.0
20260506120833 7 342 1.6 4.8 0.00 0.05 0.03 91 1015.8
20260506115330 7 326 1.6 4.8 0.00 0.05 0.03 91 1015.6
20260506114830 7 51 1.6 4.8 0.00 0.05 0.03 91 1015.8
20260506114330 7 296 0.0 4.8 0.00 0.05 0.03 91 1015.7
20260506113830 7 351 0.0 4.8 0.00 0.05 0.03 91 1015.7
20260506113330 7 275 0.0 3.2 0.00 0.05 0.03 91 1015.7
20260506112327 7 138 0.0 4.8 0.00 0.05 0.03 91 1015.6
20260506111808 7 302 0.0 4.8 0.00 0.05 0.03 91 1015.6
20260506110801 7 31 0.0 6.4 0.00 0.05 0.03 91 1015.2
20260506110302 7 15 1.6 6.4 0.00 0.05 0.03 91 1015.2
20260506105802 7 350 1.6 6.4 0.00 0.05 0.03 91 1015.0
20260506105304 7 284 0.0 3.2 0.00 0.05 0.03 91 1015.0
20260506104801 7 32 0.0 3.2 0.00 0.05 0.03 91 1014.9
20260506104303 7 27 0.0 3.2 0.00 0.05 0.03 91 1014.8
20260506103801 7 300 0.0 3.2 0.00 0.05 0.03 91 1014.4
20260506103302 7 5 0.0 3.2 0.00 0.05 0.03 91 1014.4
20260506102800 7 338 0.0 4.8 0.00 0.05 0.03 91 1014.2
20260506102305 7 350 1.6 6.4 0.00 0.05 0.03 91 1014.2
20260506101801 7 350 1.6 6.4 0.00 0.08 0.03 91 1014.0
20260506101301 7 44 0.0 3.2 0.00 0.08 0.03 91 1013.8
20260506100800 7 89 0.0 3.2 0.00 0.08 0.03 91 1013.5
20260506100301 7 98 0.0 3.2 0.00 0.10 0.03 91 1013.3
20260506095800 7 250 1.6 6.4 0.00 0.10 0.03 91 1013.3
20260506095301 7 66 1.6 6.4 0.00 0.10 0.03 91 1013.3
20260506094800 7 254 1.6 11.3 0.00 0.10 0.03 91 1013.1
20260506094301 7 43 1.6 11.3 0.00 0.10 0.03 91 1012.9
20260506093303 7 56 1.6 4.8 0.00 0.10 0.03 92 1012.7
20260506092305 7 115 0.0 4.8 0.00 0.10 0.03 92 1012.7
20260506091802 7 40 1.6 4.8 0.00 0.10 0.03 92 1012.8
20260506091302 7 11 1.6 4.8 0.00 0.10 0.03 92 1012.9
20260506090802 7 333 1.6 4.8 0.00 0.13 0.03 93 1012.7
20260506090302 7 96 0.0 3.2 0.00 0.13 0.03 93 1012.8
20260506085802 7 72 0.0 3.2 0.00 0.13 0.03 93 1012.9
20260506084239 7 36 0.0 3.2 0.00 0.51 0.03 93 1012.7
20260506083733 7 46 1.6 4.8 0.00 0.66 0.03 93 1012.7
20260506082730 7 351 1.6 6.4 0.00 0.74 0.03 93 1012.9
20260506082230 7 78 1.6 6.4 0.00 0.79 0.03 93 1012.6
20260506081730 7 84 1.6 6.4 0.00 0.84 0.03 93 1012.5
20260506081231 7 148 1.6 6.4 0.00 0.84 0.03 93 1012.2
20260506080730 7 111 1.6 9.7 0.00 0.84 0.03 93 1012.4
20260506072727 7 336 0.0 3.2 0.00 1.98 0.03 94 1012.1
20260506071202 7 314 1.6 11.3 0.00 2.74 0.03 94 1012.2
20260506070702 7 256 3.2 16.1 0.00 3.05 0.03 94 1012.0
20260506070203 7 60 3.2 16.1 0.00 3.40 0.03 94 1012.1